GLO9610 SBEG-SBGR

Flight info

Callsign GLO9610
Flight time N/A
Altitude 37000
Route ETAXA UZ87 OBLUG UZ42 ZARES
Aircraft B738/M-SDE2E3FGHIRWXY/LB1

Departure

Time 2026-04-26 01:25
Airport Eduardo Gomes International Airport (SBEG)

Arrival

Time N/A
Airport São Paulo/Guarulhos–Governor André Franco Montoro International Airport (SBGR)
Time Latitude Longitude Altitude Speed Heading
2026-04-26 00:59 -3.03260 -60.04446 298 ft 0 kts 348°
2026-04-26 01:12 -3.03261 -60.04446 298 ft 1 kts 349°
2026-04-26 01:12 -3.03279 -60.04440 298 ft 4 kts 298°
2026-04-26 01:12 -3.03280 -60.04417 299 ft 3 kts 256°
2026-04-26 01:13 -3.03279 -60.04413 299 ft 1 kts 256°
2026-04-26 01:17 -3.03286 -60.04439 298 ft 9 kts 256°
2026-04-26 01:17 -3.03301 -60.04507 300 ft 10 kts 261°
2026-04-26 01:18 -3.03308 -60.04575 300 ft 10 kts 264°
2026-04-26 01:18 -3.03308 -60.04642 298 ft 10 kts 272°
2026-04-26 01:18 -3.03305 -60.04707 299 ft 9 kts 266°
2026-04-26 01:18 -3.03350 -60.04749 301 ft 9 kts 212°
2026-04-26 01:19 -3.03389 -60.04797 297 ft 9 kts 236°
2026-04-26 01:19 -3.03429 -60.04844 297 ft 9 kts 224°
2026-04-26 01:19 -3.03483 -60.04887 297 ft 11 kts 215°
2026-04-26 01:19 -3.03523 -60.04920 299 ft 12 kts 226°
2026-04-26 01:20 -3.03582 -60.05020 299 ft 13 kts 250°
2026-04-26 01:20 -3.03607 -60.05109 298 ft 13 kts 255°
2026-04-26 01:20 -3.03630 -60.05196 297 ft 13 kts 255°
2026-04-26 01:20 -3.03653 -60.05281 299 ft 12 kts 255°
2026-04-26 01:21 -3.03672 -60.05364 296 ft 12 kts 259°
2026-04-26 01:21 -3.03685 -60.05447 295 ft 12 kts 263°
2026-04-26 01:21 -3.03689 -60.05528 297 ft 12 kts 269°
2026-04-26 01:21 -3.03690 -60.05607 297 ft 12 kts 269°
2026-04-26 01:22 -3.03690 -60.05710 297 ft 17 kts 270°
2026-04-26 01:22 -3.03691 -60.05826 294 ft 16 kts 269°
2026-04-26 01:22 -3.03691 -60.05937 294 ft 15 kts 270°
2026-04-26 01:22 -3.03691 -60.06036 294 ft 13 kts 269°
2026-04-26 01:23 -3.03696 -60.06111 293 ft 11 kts 255°
2026-04-26 01:23 -3.03743 -60.06164 292 ft 10 kts 200°
2026-04-26 01:23 -3.03813 -60.06172 293 ft 10 kts 168°
2026-04-26 01:23 -3.03855 -60.06125 294 ft 10 kts 91°
2026-04-26 01:24 -3.03855 -60.06047 293 ft 20 kts 90°
2026-04-26 01:24 -3.03856 -60.05661 293 ft 91 kts 90°
2026-04-26 01:24 -3.03857 -60.04815 297 ft 150 kts 90°
2026-04-26 01:24 -3.03875 -60.03678 636 ft 172 kts 92°
2026-04-26 01:25 -3.03916 -60.02461 1289 ft 179 kts 91°
2026-04-26 01:25 -3.03928 -60.01609 1746 ft 185 kts 90°
2026-04-26 01:25 -3.04039 -59.99804 2473 ft 206 kts 107°
2026-04-26 01:25 -3.04943 -59.98575 2647 ft 235 kts 145°
2026-04-26 01:26 -3.06381 -59.97771 3149 ft 249 kts 150°
2026-04-26 01:26 -3.07956 -59.96876 3596 ft 268 kts 148°
2026-04-26 01:26 -3.09559 -59.95909 4417 ft 271 kts 147°
2026-04-26 01:26 -3.11169 -59.94911 5255 ft 273 kts 147°
2026-04-26 01:27 -3.12790 -59.93891 6062 ft 277 kts 147°
2026-04-26 01:27 -3.14420 -59.92853 6826 ft 280 kts 146°
2026-04-26 01:27 -3.16078 -59.91790 7566 ft 284 kts 146°
2026-04-26 01:27 -3.17746 -59.90716 8305 ft 288 kts 146°
2026-04-26 01:28 -3.18869 -59.89991 8793 ft 290 kts 146°
2026-04-26 01:28 -3.20574 -59.88888 9530 ft 294 kts 146°
2026-04-26 01:28 -3.22299 -59.87770 10241 ft 298 kts 146°
2026-04-26 01:28 -3.24055 -59.86632 10903 ft 302 kts 146°
2026-04-26 01:29 -3.25818 -59.85489 11622 ft 304 kts 146°
2026-04-26 01:29 -3.27602 -59.84331 12324 ft 307 kts 145°
2026-04-26 01:29 -3.29405 -59.83161 13007 ft 310 kts 145°
2026-04-26 01:29 -3.31225 -59.81979 13690 ft 313 kts 145°
2026-04-26 01:30 -3.33060 -59.80787 14293 ft 317 kts 145°
2026-04-26 01:30 -3.34919 -59.79579 14900 ft 320 kts 145°
2026-04-26 01:30 -3.36795 -59.78359 15505 ft 323 kts 145°
2026-04-26 01:30 -3.38688 -59.77129 16114 ft 326 kts 145°
2026-04-26 01:31 -3.40596 -59.75889 16742 ft 328 kts 145°
2026-04-26 01:31 -3.42523 -59.74637 17339 ft 331 kts 145°
2026-04-26 01:31 -3.44468 -59.73372 17922 ft 335 kts 145°
2026-04-26 01:31 -3.46431 -59.72095 18464 ft 338 kts 145°
2026-04-26 01:32 -3.47743 -59.71243 18800 ft 340 kts 145°
2026-04-26 01:32 -3.50409 -59.69510 19492 ft 343 kts 145°
2026-04-26 01:32 -3.52418 -59.68203 20002 ft 346 kts 145°
2026-04-26 01:32 -3.54474 -59.66924 20502 ft 350 kts 148°
2026-04-26 01:33 -3.56610 -59.65741 21008 ft 353 kts 150°
2026-04-26 01:33 -3.58789 -59.64586 21499 ft 356 kts 150°
2026-04-26 01:33 -3.60991 -59.63429 21994 ft 359 kts 150°
2026-04-26 01:33 -3.63206 -59.62260 22486 ft 361 kts 150°
2026-04-26 01:34 -3.65435 -59.61076 22961 ft 364 kts 150°
2026-04-26 01:34 -3.67678 -59.59877 23440 ft 367 kts 149°
2026-04-26 01:34 -3.69938 -59.58665 23828 ft 370 kts 149°
2026-04-26 01:34 -3.72212 -59.57443 24237 ft 372 kts 149°
2026-04-26 01:35 -3.74493 -59.56214 24644 ft 373 kts 149°
2026-04-26 01:35 -3.76785 -59.54979 25055 ft 375 kts 149°
2026-04-26 01:35 -3.79091 -59.53737 25456 ft 377 kts 149°
2026-04-26 01:35 -3.81403 -59.52490 25854 ft 379 kts 149°
2026-04-26 01:36 -3.83730 -59.51235 26243 ft 381 kts 149°
2026-04-26 01:36 -3.86070 -59.49973 26625 ft 383 kts 149°
2026-04-26 01:36 -3.88391 -59.48721 26998 ft 385 kts 149°
2026-04-26 01:37 -3.93122 -59.46170 27805 ft 387 kts 149°
2026-04-26 01:37 -3.95496 -59.44890 28182 ft 389 kts 149°
2026-04-26 01:37 -3.97888 -59.43600 28549 ft 391 kts 149°
2026-04-26 01:37 -4.00286 -59.42306 28904 ft 393 kts 149°
2026-04-26 01:38 -4.02704 -59.41002 29255 ft 395 kts 149°
2026-04-26 01:38 -4.05128 -59.39693 29603 ft 397 kts 149°
2026-04-26 01:38 -4.07567 -59.38378 29946 ft 399 kts 149°
2026-04-26 01:38 -4.10018 -59.37055 30248 ft 401 kts 149°
2026-04-26 01:39 -4.12476 -59.35728 30539 ft 403 kts 149°
2026-04-26 01:39 -4.14950 -59.34393 30826 ft 404 kts 149°
2026-04-26 01:39 -4.17427 -59.33057 31107 ft 406 kts 149°
2026-04-26 01:39 -4.19920 -59.31712 31382 ft 407 kts 149°
2026-04-26 01:40 -4.22418 -59.30366 31640 ft 409 kts 149°
2026-04-26 01:40 -4.24935 -59.29009 31901 ft 411 kts 149°
2026-04-26 01:40 -4.27454 -59.27652 32178 ft 412 kts 149°
2026-04-26 01:40 -4.29980 -59.26291 32459 ft 413 kts 149°
2026-04-26 01:41 -4.32512 -59.24926 32710 ft 414 kts 149°
2026-04-26 01:41 -4.35049 -59.23558 32947 ft 416 kts 149°
2026-04-26 01:41 -4.37605 -59.22180 33192 ft 417 kts 149°
2026-04-26 01:41 -4.40161 -59.20802 33411 ft 419 kts 149°
2026-04-26 01:42 -4.42731 -59.19415 33659 ft 420 kts 149°
2026-04-26 01:42 -4.45273 -59.18044 33892 ft 421 kts 149°
2026-04-26 01:42 -4.47891 -59.16632 34091 ft 422 kts 149°
2026-04-26 01:42 -4.50447 -59.15253 34283 ft 424 kts 149°
2026-04-26 01:43 -4.53046 -59.13851 34475 ft 425 kts 149°
2026-04-26 01:43 -4.55650 -59.12446 34656 ft 426 kts 149°
2026-04-26 01:43 -4.58258 -59.11038 34859 ft 427 kts 149°
2026-04-26 01:43 -4.60880 -59.09623 35005 ft 429 kts 149°
2026-04-26 01:44 -4.63506 -59.08206 35182 ft 430 kts 149°
2026-04-26 01:44 -4.66142 -59.06783 35350 ft 431 kts 149°
2026-04-26 01:44 -4.68784 -59.05357 35547 ft 431 kts 149°
2026-04-26 01:44 -4.71421 -59.03933 35750 ft 431 kts 149°
2026-04-26 01:45 -4.74067 -59.02505 35932 ft 432 kts 148°
2026-04-26 01:45 -4.76715 -59.01075 36094 ft 433 kts 148°
2026-04-26 01:45 -4.79238 -58.99713 36235 ft 434 kts 148°
2026-04-26 01:45 -4.81899 -58.98275 36377 ft 435 kts 148°
2026-04-26 01:46 -4.84562 -58.96837 36537 ft 436 kts 148°
2026-04-26 01:46 -4.87231 -58.95395 36679 ft 436 kts 148°
2026-04-26 01:46 -4.89002 -58.94438 36779 ft 437 kts 148°
2026-04-26 01:46 -4.92587 -58.92501 36927 ft 439 kts 149°
2026-04-26 01:47 -4.95284 -58.91043 36966 ft 442 kts 149°
2026-04-26 01:47 -5.00701 -58.88115 36980 ft 447 kts 149°
2026-04-26 01:48 -5.06214 -58.85135 36972 ft 452 kts 149°
2026-04-26 01:48 -5.11769 -58.82133 36976 ft 455 kts 149°
2026-04-26 01:49 -5.17361 -58.79110 36971 ft 456 kts 149°
2026-04-26 01:49 -5.22895 -58.76120 36949 ft 447 kts 149°
2026-04-26 01:50 -5.28358 -58.73165 36971 ft 447 kts 149°
2026-04-26 01:50 -5.33843 -58.70197 36976 ft 448 kts 149°
2026-04-26 01:51 -5.39331 -58.67226 36980 ft 449 kts 149°
2026-04-26 01:51 -5.44798 -58.64267 36979 ft 450 kts 149°
2026-04-26 01:52 -5.50316 -58.61280 36978 ft 451 kts 149°
2026-04-26 01:52 -5.55846 -58.58285 36974 ft 452 kts 149°
2026-04-26 01:53 -5.61378 -58.55289 36975 ft 452 kts 149°
2026-04-26 01:53 -5.66916 -58.52289 36976 ft 452 kts 149°
2026-04-26 01:54 -5.72451 -58.49290 36977 ft 452 kts 149°
2026-04-26 01:54 -5.77998 -58.46283 36987 ft 455 kts 149°
2026-04-26 01:55 -5.83603 -58.43244 36989 ft 460 kts 149°
2026-04-26 01:55 -5.89249 -58.40182 36986 ft 463 kts 149°
2026-04-26 01:56 -5.94938 -58.37098 36978 ft 465 kts 149°
2026-04-26 01:56 -6.00601 -58.34027 36970 ft 460 kts 149°
2026-04-26 01:57 -6.06188 -58.30997 36968 ft 454 kts 149°
2026-04-26 01:57 -6.11739 -58.27984 36975 ft 453 kts 149°
2026-04-26 01:58 -6.17282 -58.24974 36975 ft 455 kts 149°
2026-04-26 01:58 -6.22883 -58.21931 36993 ft 460 kts 149°
2026-04-26 01:59 -6.28549 -58.18853 36992 ft 465 kts 149°
2026-04-26 01:59 -6.34265 -58.15748 36982 ft 468 kts 149°
2026-04-26 02:00 -6.40002 -58.12632 36983 ft 469 kts 149°
2026-04-26 02:00 -6.45739 -58.09514 36985 ft 469 kts 149°
2026-04-26 02:01 -6.51462 -58.06403 36979 ft 468 kts 149°
2026-04-26 02:01 -6.57188 -58.03290 36979 ft 466 kts 149°
2026-04-26 02:02 -6.62881 -58.00193 36980 ft 465 kts 149°
2026-04-26 02:02 -6.68472 -57.97151 36979 ft 463 kts 149°
2026-04-26 02:03 -6.74133 -57.94070 36980 ft 462 kts 149°
2026-04-26 02:03 -6.79772 -57.91000 36981 ft 461 kts 149°
2026-04-26 02:04 -6.85411 -57.87930 36980 ft 460 kts 149°
2026-04-26 02:04 -6.91032 -57.84868 36977 ft 460 kts 149°
2026-04-26 02:05 -6.96651 -57.81806 36981 ft 459 kts 149°
2026-04-26 02:05 -7.02243 -57.78759 36982 ft 460 kts 149°
2026-04-26 02:06 -7.07877 -57.75687 36979 ft 461 kts 149°
2026-04-26 02:06 -7.13517 -57.72612 36980 ft 461 kts 148°
2026-04-26 02:07 -7.19161 -57.69533 36983 ft 462 kts 148°
2026-04-26 02:07 -7.24815 -57.66448 36981 ft 463 kts 148°
2026-04-26 02:08 -7.30483 -57.63355 36982 ft 464 kts 148°
2026-04-26 02:08 -7.36158 -57.60257 36982 ft 464 kts 148°
2026-04-26 02:09 -7.41839 -57.57154 36988 ft 465 kts 149°
2026-04-26 02:09 -7.47525 -57.54049 36981 ft 465 kts 149°
2026-04-26 02:10 -7.53205 -57.50946 36975 ft 464 kts 149°
2026-04-26 02:10 -7.58875 -57.47847 36979 ft 463 kts 149°
2026-04-26 02:11 -7.64500 -57.44772 36980 ft 462 kts 149°
2026-04-26 02:11 -7.70143 -57.41686 36977 ft 461 kts 149°
2026-04-26 02:12 -7.75772 -57.38606 36980 ft 460 kts 149°
2026-04-26 02:12 -7.81396 -57.35529 36980 ft 460 kts 149°
2026-04-26 02:13 -7.87016 -57.32452 36982 ft 459 kts 149°
2026-04-26 02:13 -7.92635 -57.29375 36980 ft 460 kts 149°
2026-04-26 02:14 -7.98255 -57.26297 36982 ft 460 kts 149°
2026-04-26 02:14 -8.03870 -57.23220 36980 ft 461 kts 149°
2026-04-26 02:15 -8.09506 -57.20131 36985 ft 462 kts 149°
2026-04-26 02:15 -8.15159 -57.17032 36982 ft 463 kts 149°
2026-04-26 02:16 -8.19865 -57.14451 36987 ft 464 kts 149°
2026-04-26 02:16 -8.25537 -57.11340 36987 ft 464 kts 149°
2026-04-26 02:17 -8.31215 -57.08223 36985 ft 465 kts 149°
2026-04-26 02:17 -8.36902 -57.05102 36986 ft 465 kts 149°
2026-04-26 02:18 -8.42580 -57.01984 36983 ft 464 kts 149°
2026-04-26 02:18 -8.48154 -56.98923 36983 ft 463 kts 149°
2026-04-26 02:19 -8.53810 -56.95815 36979 ft 462 kts 149°
2026-04-26 02:19 -8.59456 -56.92711 36973 ft 461 kts 149°
2026-04-26 02:20 -8.65088 -56.89614 36977 ft 460 kts 149°
2026-04-26 02:20 -8.70711 -56.86521 36978 ft 460 kts 149°
2026-04-26 02:21 -8.76333 -56.83428 36977 ft 460 kts 149°
2026-04-26 02:21 -8.81909 -56.80358 36975 ft 460 kts 149°
2026-04-26 02:22 -8.87529 -56.77264 36973 ft 460 kts 149°
2026-04-26 02:22 -8.93150 -56.74167 36978 ft 460 kts 150°
2026-04-26 02:23 -8.98773 -56.71069 36972 ft 461 kts 150°
2026-04-26 02:23 -9.04394 -56.67970 36973 ft 461 kts 150°
2026-04-26 02:24 -9.10038 -56.64858 36976 ft 462 kts 150°
2026-04-26 02:24 -9.15684 -56.61744 36974 ft 462 kts 150°
2026-04-26 02:25 -9.21327 -56.58629 36974 ft 463 kts 150°
2026-04-26 02:25 -9.26986 -56.55506 36979 ft 463 kts 150°
2026-04-26 02:26 -9.32648 -56.52379 36979 ft 464 kts 150°
2026-04-26 02:26 -9.38317 -56.49247 36978 ft 464 kts 150°
2026-04-26 02:27 -9.43988 -56.46113 36977 ft 464 kts 150°
2026-04-26 02:27 -9.45865 -56.45075 36976 ft 465 kts 150°